DLH490 EDDF-KSEA

Flight info

Callsign DLH490
Flight time N/A
Altitude 34000
Route MARUN2D/07C MARUN Y152 ARPEG Z850 ABILU DCT ATPAQ DCT OMIMA DCT ATNAK DCT GUNPA/M082F340 DCT 68N010W 72N020W/M082F360 75N040W 75N060W DCT GELBO/N0482F360 DCT 74N080W 72N090W/N0478F380 6830N10000W 66N105W 62N110W DCT YSM DCT 55N116W/N0465F400 DCT LONRO DCT YDC DCT JAKSN GLASR3
Aircraft A343/H-SDE2E3FGHIJ4J5M1RWXY/LB1D1

Departure

Time 2026-05-01 14:23
Airport Frankfurt Main Airport (EDDF)

Arrival

Time N/A
Airport Seattle–Tacoma International Airport (KSEA)
Time Latitude Longitude Altitude Speed Heading
2026-05-01 13:59 50.04804 8.56587 368 ft 0 kts 340°
2026-05-01 14:10 50.04793 8.56593 364 ft 2 kts 327°
2026-05-01 14:10 50.04779 8.56606 368 ft 2 kts 330°
2026-05-01 14:10 50.04766 8.56621 365 ft 2 kts 302°
2026-05-01 14:11 50.04760 8.56645 368 ft 2 kts 248°
2026-05-01 14:11 50.04768 8.56666 368 ft 0 kts 201°
2026-05-01 14:14 50.04759 8.56657 367 ft 6 kts 213°
2026-05-01 14:15 50.04711 8.56570 365 ft 12 kts 227°
2026-05-01 14:15 50.04642 8.56506 366 ft 11 kts 205°
2026-05-01 14:15 50.04573 8.56458 366 ft 10 kts 204°
2026-05-01 14:15 50.04522 8.56402 367 ft 7 kts 239°
2026-05-01 14:16 50.04505 8.56338 366 ft 6 kts 248°
2026-05-01 14:16 50.04489 8.56272 362 ft 10 kts 250°
2026-05-01 14:16 50.04445 8.56089 367 ft 24 kts 246°
2026-05-01 14:16 50.04369 8.56036 368 ft 9 kts 168°
2026-05-01 14:17 50.04312 8.56081 368 ft 9 kts 141°
2026-05-01 14:17 50.04289 8.56166 365 ft 10 kts 103°
2026-05-01 14:17 50.04247 8.56241 364 ft 7 kts 161°
2026-05-01 14:17 50.04201 8.56265 361 ft 8 kts 161°
2026-05-01 14:18 50.04139 8.56275 364 ft 9 kts 196°
2026-05-01 14:18 50.04104 8.56183 362 ft 15 kts 250°
2026-05-01 14:18 50.04059 8.55992 359 ft 22 kts 249°
2026-05-01 14:18 50.04023 8.55845 362 ft 22 kts 249°
2026-05-01 14:19 50.03952 8.55552 361 ft 21 kts 249°
2026-05-01 14:19 50.03904 8.55346 358 ft 20 kts 250°
2026-05-01 14:19 50.03857 8.55149 360 ft 19 kts 249°
2026-05-01 14:19 50.03811 8.54958 357 ft 19 kts 249°
2026-05-01 14:20 50.03766 8.54770 356 ft 18 kts 250°
2026-05-01 14:20 50.03674 8.54389 353 ft 19 kts 249°
2026-05-01 14:20 50.03590 8.54322 354 ft 11 kts 161°
2026-05-01 14:21 50.03582 8.54327 354 ft 0 kts 160°
2026-05-01 14:21 50.03551 8.54344 354 ft 5 kts 160°
2026-05-01 14:22 50.03492 8.54396 357 ft 6 kts 126°
2026-05-01 14:22 50.03496 8.54444 354 ft 5 kts 70°
2026-05-01 14:22 50.03557 8.54694 352 ft 51 kts 70°
2026-05-01 14:22 50.03739 8.55463 361 ft 99 kts 70°
2026-05-01 14:23 50.04030 8.56666 365 ft 137 kts 68°
2026-05-01 14:23 50.04383 8.58192 459 ft 162 kts 72°
2026-05-01 14:23 50.04802 8.59948 693 ft 183 kts 73°
2026-05-01 14:23 50.05230 8.61848 1290 ft 186 kts 73°
2026-05-01 14:24 50.05659 8.63770 1780 ft 195 kts 74°
2026-05-01 14:24 50.06119 8.65826 2198 ft 211 kts 73°
2026-05-01 14:24 50.06613 8.68018 2721 ft 218 kts 74°
2026-05-01 14:24 50.07237 8.70199 3272 ft 225 kts 59°
2026-05-01 14:25 50.08404 8.71870 3781 ft 239 kts 32°
2026-05-01 14:25 50.09972 8.73056 3999 ft 262 kts 26°
2026-05-01 14:25 50.11713 8.74185 4397 ft 277 kts 25°
2026-05-01 14:25 50.13512 8.75354 5042 ft 283 kts 25°
2026-05-01 14:26 50.15338 8.76560 5664 ft 287 kts 26°
2026-05-01 14:26 50.19054 8.79049 7037 ft 292 kts 25°
2026-05-01 14:26 50.20924 8.80310 7698 ft 294 kts 26°
2026-05-01 14:27 50.22815 8.81591 8290 ft 298 kts 26°
2026-05-01 14:27 50.24722 8.82888 8943 ft 299 kts 26°
2026-05-01 14:27 50.26654 8.84135 9563 ft 303 kts 20°
2026-05-01 14:28 50.30915 8.84263 10612 ft 316 kts 353°
2026-05-01 14:28 50.33143 8.83771 10859 ft 331 kts 353°
2026-05-01 14:28 50.35470 8.83251 11084 ft 345 kts 353°
2026-05-01 14:28 50.37893 8.82718 11295 ft 359 kts 353°
2026-05-01 14:29 50.40412 8.82172 11502 ft 372 kts 353°
2026-05-01 14:29 50.43020 8.81610 11727 ft 384 kts 353°
2026-05-01 14:30 50.51092 8.79885 13155 ft 396 kts 354°
2026-05-01 14:30 50.52934 8.79490 13511 ft 398 kts 353°
2026-05-01 14:30 50.55687 8.78896 14063 ft 401 kts 353°
2026-05-01 14:31 50.61153 8.76808 15043 ft 407 kts 345°
2026-05-01 14:31 50.63884 8.75558 15515 ft 410 kts 345°
2026-05-01 14:31 50.66629 8.74297 15986 ft 413 kts 345°
2026-05-01 14:31 50.69399 8.73028 16466 ft 415 kts 345°
2026-05-01 14:32 50.72176 8.71757 16969 ft 417 kts 345°
2026-05-01 14:32 50.74932 8.70500 17441 ft 419 kts 345°
2026-05-01 14:32 50.77746 8.69210 17882 ft 423 kts 345°
2026-05-01 14:32 50.80522 8.67627 18351 ft 426 kts 335°
2026-05-01 14:33 50.83020 8.65104 18818 ft 429 kts 319°
2026-05-01 14:33 50.85170 8.61831 19290 ft 429 kts 313°
2026-05-01 14:33 50.87172 8.58306 19673 ft 433 kts 310°
2026-05-01 14:33 50.89109 8.54640 20045 ft 436 kts 309°
2026-05-01 14:34 50.91038 8.50896 20380 ft 440 kts 309°
2026-05-01 14:34 50.92979 8.47128 20686 ft 445 kts 309°
2026-05-01 14:34 50.94949 8.43341 21341 ft 426 kts 310°
2026-05-01 14:34 50.96740 8.39905 23504 ft 390 kts 310°
2026-05-01 14:35 50.98443 8.36668 24377 ft 376 kts 311°
2026-05-01 14:35 51.00151 8.33525 24669 ft 378 kts 315°
2026-05-01 14:35 51.02107 8.30692 24791 ft 383 kts 324°
2026-05-01 14:35 51.04329 8.28300 24888 ft 389 kts 329°
2026-05-01 14:36 51.06668 8.26064 25006 ft 395 kts 331°
2026-05-01 14:36 51.09078 8.23891 25137 ft 401 kts 332°
2026-05-01 14:36 51.11545 8.21729 25259 ft 407 kts 332°
2026-05-01 14:36 51.14051 8.19546 25368 ft 414 kts 332°
2026-05-01 14:37 51.16591 8.17321 25486 ft 420 kts 332°
2026-05-01 14:37 51.19165 8.15043 25605 ft 426 kts 332°
2026-05-01 14:37 51.21773 8.12723 25715 ft 433 kts 332°
2026-05-01 14:37 51.24415 8.10361 25850 ft 438 kts 332°
2026-05-01 14:38 51.27090 8.07964 25973 ft 443 kts 331°
2026-05-01 14:38 51.29798 8.05532 26087 ft 449 kts 331°
2026-05-01 14:38 51.32536 8.03068 26197 ft 455 kts 331°
2026-05-01 14:38 51.35312 8.00568 26289 ft 460 kts 332°
2026-05-01 14:39 51.38146 7.98152 26449 ft 463 kts 336°
2026-05-01 14:39 51.41130 7.96177 26693 ft 465 kts 339°
2026-05-01 14:39 51.44137 7.94253 26955 ft 466 kts 339°
2026-05-01 14:39 51.47145 7.92289 27205 ft 467 kts 339°
2026-05-01 14:40 51.50160 7.90319 27459 ft 468 kts 339°
2026-05-01 14:40 51.53186 7.88355 27712 ft 470 kts 339°
2026-05-01 14:40 51.56221 7.86399 27949 ft 471 kts 339°
2026-05-01 14:40 51.59274 7.84441 28159 ft 473 kts 339°
2026-05-01 14:41 51.62333 7.82483 28418 ft 474 kts 339°
2026-05-01 14:41 51.65361 7.80549 28648 ft 475 kts 339°
2026-05-01 14:41 51.68434 7.78585 28848 ft 477 kts 339°
2026-05-01 14:41 51.71519 7.76611 29116 ft 477 kts 339°
2026-05-01 14:42 51.74588 7.74643 29491 ft 475 kts 340°
2026-05-01 14:42 51.77654 7.72673 29870 ft 472 kts 339°
2026-05-01 14:42 51.80702 7.70712 30170 ft 472 kts 339°
2026-05-01 14:42 51.83754 7.68746 30424 ft 471 kts 340°
2026-05-01 14:43 51.86790 7.66787 30752 ft 468 kts 339°
2026-05-01 14:43 51.89805 7.64836 31074 ft 466 kts 339°
2026-05-01 14:43 51.92817 7.62884 31231 ft 467 kts 339°
2026-05-01 14:43 51.95839 7.60924 31366 ft 469 kts 339°
2026-05-01 14:44 51.98864 7.58960 31638 ft 466 kts 338°
2026-05-01 14:44 52.04846 7.55065 32176 ft 463 kts 338°
2026-05-01 14:44 52.07845 7.53109 32230 ft 466 kts 338°
2026-05-01 14:45 52.10857 7.51142 32446 ft 465 kts 338°
2026-05-01 14:45 52.16828 7.47233 32960 ft 461 kts 338°
2026-05-01 14:45 52.19809 7.45277 33081 ft 462 kts 338°
2026-05-01 14:46 52.22799 7.43312 33171 ft 463 kts 338°
2026-05-01 14:46 52.28700 7.39425 33738 ft 458 kts 337°
2026-05-01 14:46 52.31654 7.37476 33867 ft 459 kts 337°
2026-05-01 14:47 52.37591 7.33548 34132 ft 459 kts 337°
2026-05-01 14:47 52.40543 7.31591 34261 ft 456 kts 337°
2026-05-01 14:48 52.46325 7.27754 34270 ft 444 kts 337°
2026-05-01 14:48 52.54911 7.22031 34277 ft 444 kts 337°
2026-05-01 14:49 52.66391 7.14341 34270 ft 444 kts 337°
2026-05-01 14:50 52.77836 7.06632 34265 ft 444 kts 336°
2026-05-01 14:51 52.86417 7.00822 34277 ft 446 kts 337°
2026-05-01 14:52 52.95046 6.94955 34261 ft 453 kts 337°
2026-05-01 14:53 53.03881 6.88922 34271 ft 462 kts 336°
2026-05-01 14:53 53.09853 6.84829 34261 ft 464 kts 337°
2026-05-01 14:54 53.15811 6.80734 34261 ft 463 kts 336°
2026-05-01 14:54 53.21752 6.76634 34271 ft 462 kts 336°
2026-05-01 14:55 53.27703 6.72515 34262 ft 463 kts 336°
2026-05-01 14:55 53.33647 6.68393 34257 ft 462 kts 336°
2026-05-01 14:56 53.39617 6.64238 34271 ft 466 kts 336°
2026-05-01 14:56 53.45604 6.60055 34258 ft 466 kts 336°
2026-05-01 14:57 53.51588 6.55866 34255 ft 466 kts 336°
2026-05-01 14:57 53.60576 6.49550 34258 ft 467 kts 336°
2026-05-01 14:58 53.66572 6.45318 34255 ft 467 kts 336°
2026-05-01 14:58 53.72568 6.41076 34258 ft 467 kts 336°
2026-05-01 14:59 53.78563 6.36822 34265 ft 467 kts 336°
2026-05-01 14:59 53.84552 6.32557 34258 ft 467 kts 336°
2026-05-01 15:00 53.93549 6.26122 34256 ft 470 kts 335°
2026-05-01 15:01 53.99588 6.21789 34260 ft 471 kts 336°
2026-05-01 15:01 54.05585 6.17476 34260 ft 471 kts 335°
2026-05-01 15:02 54.11617 6.13119 34258 ft 471 kts 336°
2026-05-01 15:02 54.17657 6.08740 34257 ft 472 kts 335°
2026-05-01 15:03 54.23703 6.04347 34260 ft 472 kts 335°
2026-05-01 15:03 54.29743 5.99940 34260 ft 472 kts 335°
2026-05-01 15:04 54.35782 5.95517 34260 ft 472 kts 335°
2026-05-01 15:04 54.41819 5.91088 34260 ft 472 kts 335°
2026-05-01 15:05 54.47856 5.86644 34259 ft 473 kts 335°
2026-05-01 15:05 54.53929 5.82157 34256 ft 476 kts 335°
2026-05-01 15:06 54.60013 5.77648 34257 ft 476 kts 335°
2026-05-01 15:06 54.66097 5.73126 34260 ft 476 kts 335°
2026-05-01 15:07 54.72174 5.68593 34260 ft 476 kts 335°
2026-05-01 15:07 54.78250 5.64046 34260 ft 476 kts 335°
2026-05-01 15:08 54.84324 5.59485 34257 ft 476 kts 335°
2026-05-01 15:08 54.90397 5.54910 34258 ft 476 kts 335°
2026-05-01 15:09 54.96473 5.50318 34257 ft 476 kts 334°
2026-05-01 15:09 55.02509 5.45740 34256 ft 476 kts 334°
2026-05-01 15:10 55.08637 5.41078 34254 ft 478 kts 334°
2026-05-01 15:10 55.17754 5.34112 34258 ft 479 kts 334°
2026-05-01 15:11 55.26900 5.27089 34254 ft 478 kts 334°
2026-05-01 15:12 55.32992 5.22392 34257 ft 478 kts 334°
2026-05-01 15:12 55.42136 5.15311 34267 ft 478 kts 333°
2026-05-01 15:14 55.57394 5.03416 34249 ft 478 kts 333°
2026-05-01 15:14 55.66523 4.96250 34254 ft 478 kts 333°
2026-05-01 15:15 55.78687 4.86643 34246 ft 479 kts 333°
2026-05-01 15:16 55.89820 4.77794 34246 ft 479 kts 333°
2026-05-01 15:18 56.05009 4.65630 34238 ft 479 kts 333°
2026-05-01 15:19 56.17155 4.55827 34241 ft 479 kts 332°
2026-05-01 15:19 56.26280 4.48414 34233 ft 480 kts 332°
2026-05-01 15:20 56.35408 4.40965 34230 ft 480 kts 332°
2026-05-01 15:21 56.41444 4.36016 34224 ft 480 kts 332°
2026-05-01 15:21 56.47519 4.31017 34222 ft 480 kts 332°
2026-05-01 15:22 56.56626 4.23492 34220 ft 479 kts 332°
2026-05-01 15:22 56.62684 4.18463 34220 ft 479 kts 332°
2026-05-01 15:23 56.68742 4.13416 34214 ft 479 kts 332°
2026-05-01 15:23 56.74797 4.08353 34214 ft 479 kts 332°
2026-05-01 15:24 56.80852 4.03274 34212 ft 478 kts 331°
2026-05-01 15:24 56.86890 3.98191 34208 ft 477 kts 331°
2026-05-01 15:25 56.92915 3.93099 34209 ft 477 kts 331°
2026-05-01 15:25 56.98939 3.87989 34202 ft 477 kts 331°
2026-05-01 15:26 57.04956 3.82868 34202 ft 477 kts 330°
2026-05-01 15:26 57.10979 3.77725 34196 ft 477 kts 330°
2026-05-01 15:27 57.16990 3.72572 34192 ft 477 kts 330°
2026-05-01 15:28 57.26005 3.64808 34192 ft 477 kts 330°